FW1757 Weather Reports


time (UTC)temp
F
wind
direction
speed
knots
gust
knots
rain 1hr
in
rain 24hr
in
rain mn
in
humidity
%
barometer
mb
20260506104034 59 278 0.0 0.0 0.00 0.00 0.00 66 1013.5
20260506103533 59 273 0.0 0.0 0.00 0.00 0.00 66 1013.3
20260506103033 59 300 0.0 0.0 0.00 0.00 0.00 66 1013.2
20260506102533 59 300 0.0 0.0 0.00 0.00 0.00 66 1013.2
20260506102034 59 281 0.0 0.0 0.00 0.00 0.00 66 1013.2
20260506101534 59 294 0.0 0.0 0.00 0.00 0.00 66 1013.2
20260506101032 59 272 0.0 0.0 0.00 0.00 0.00 66 1013.2
20260506100532 59 297 0.0 0.0 0.00 0.00 0.00 65 1013.1
20260506100032 59 309 0.0 0.0 0.00 0.00 0.00 65 1013.2
20260506095531 59 278 0.0 0.0 0.00 0.00 0.00 65 1013.1
20260506095031 59 251 0.0 0.0 0.00 0.00 0.00 66 1013.0
20260506094532 59 263 0.0 0.0 0.00 0.00 0.00 65 1013.0
20260506094030 59 238 0.0 0.0 0.00 0.00 0.00 65 1013.1
20260506093532 59 272 0.0 0.0 0.00 0.00 0.00 65 1013.0
20260506093031 59 281 0.0 0.0 0.00 0.00 0.00 65 1012.9
20260506092531 59 254 0.0 0.0 0.00 0.00 0.00 65 1013.0
20260506092030 59 207 0.0 0.0 0.00 0.00 0.00 65 1013.0
20260506091530 59 249 0.0 0.0 0.00 0.00 0.00 65 1013.0
20260506091030 59 264 0.0 0.0 0.00 0.00 0.00 65 1013.0
20260506090529 59 251 0.0 0.0 0.00 0.00 0.00 65 1013.0
20260506090028 59 207 0.0 0.0 0.00 0.00 0.00 65 1013.1
20260506085528 59 289 0.0 0.0 0.00 0.00 0.00 65 1013.0
20260506085028 59 234 0.0 0.0 0.00 0.00 0.00 65 1013.0
20260506084528 59 232 0.0 0.0 0.00 0.00 0.00 65 1013.1
20260506084031 59 261 0.0 0.0 0.00 0.00 0.00 65 1013.0
20260506083528 59 219 0.0 0.0 0.00 0.00 0.00 64 1013.0
20260506083027 59 232 0.0 0.0 0.00 0.00 0.00 64 1013.1
20260506082527 59 227 0.0 0.0 0.00 0.00 0.00 64 1013.1
20260506082027 59 250 0.0 0.0 0.00 0.00 0.00 64 1013.0
20260506081527 59 294 0.0 0.0 0.00 0.00 0.00 64 1013.1
20260506081027 59 278 0.0 0.0 0.00 0.00 0.00 64 1013.0
20260506080526 59 202 0.0 0.0 0.00 0.00 0.00 64 1013.0
20260506073524 60 215 0.0 0.0 0.00 0.00 0.00 64 1012.8
20260506073023 60 292 0.0 0.0 0.00 0.00 0.00 65 1012.8
20260506072523 60 292 0.0 0.0 0.00 0.00 0.00 65 1012.8
20260506072022 60 286 0.0 0.0 0.00 0.00 0.00 65 1012.8
20260506071529 60 286 0.0 0.0 0.00 0.00 0.00 64 1012.8
20260506071022 60 258 0.0 0.0 0.00 0.00 0.00 64 1012.8
20260506070520 60 274 0.0 0.0 0.00 0.00 0.00 64 1012.8
20260506062018 60 273 0.0 0.0 0.00 0.00 0.00 64 1012.5
20260506061521 60 246 0.0 0.0 0.00 0.00 0.00 64 1012.4
20260506061018 60 250 0.0 0.0 0.00 0.00 0.00 64 1012.5
20260506060519 60 297 0.0 0.0 0.00 0.00 0.00 65 1012.4
20260506051012 59 299 0.0 0.0 0.00 0.00 0.00 63 1011.7
20260506050516 59 303 0.0 0.0 0.00 0.00 0.00 63 1011.5
20260506045011 59 291 0.0 0.0 0.00 0.00 0.00 63 1011.4
20260506044510 59 312 0.0 0.0 0.00 0.00 0.00 63 1011.4
20260506044016 59 269 0.0 0.0 0.00 0.00 0.00 64 1011.3
20260506043510 59 290 0.0 0.0 0.00 0.00 0.00 64 1011.1
20260506043010 60 283 0.0 0.0 0.00 0.00 0.00 64 1011.2
20260506042510 60 294 0.0 0.0 0.00 0.00 0.00 65 1011.3
20260506042013 60 275 0.0 0.0 0.00 0.00 0.00 65 1011.3
20260506041509 60 257 0.0 0.0 0.00 0.00 0.00 65 1011.2
20260506041012 60 249 0.0 0.0 0.00 0.00 0.00 66 1011.1
20260506040509 60 275 0.0 0.0 0.00 0.00 0.00 66 1011.1
20260506040030 60 259 0.0 0.0 0.00 0.00 0.00 66 1011.0
20260506035509 61 257 0.0 0.0 0.00 0.00 0.00 66 1010.7
20260506035009 61 271 0.0 0.0 0.00 0.00 0.00 66 1010.8
20260506034509 61 257 0.0 0.0 0.00 0.00 0.00 66 1010.6
20260506034009 61 242 0.0 0.0 0.00 0.00 0.00 67 1010.6
20260506033508 61 290 0.0 0.0 0.00 0.00 0.00 67 1010.6
20260506033008 61 286 0.0 0.0 0.00 0.00 0.00 67 1010.5
20260506032508 62 271 0.0 0.0 0.00 0.00 0.00 67 1010.6
20260506032009 62 267 0.0 0.0 0.00 0.00 0.00 67 1010.5
20260506031519 62 292 0.0 0.0 0.00 0.00 0.00 67 1010.4
20260506031011 63 281 0.0 0.0 0.00 0.00 0.00 66 1010.4
20260506030506 63 251 0.0 0.0 0.00 0.00 0.00 66 1010.2
20260506030007 64 254 0.0 0.0 0.00 0.00 0.00 66 1010.2
20260506025506 64 294 0.0 0.0 0.00 0.00 0.00 66 1010.1
20260506025006 64 287 0.0 0.0 0.00 0.00 0.00 65 1010.0
20260506024516 65 296 0.0 0.0 0.00 0.00 0.00 65 1010.0
20260506024006 65 288 0.0 0.0 0.00 0.00 0.00 64 1010.0
20260506023506 65 290 0.0 0.0 0.00 0.00 0.00 64 1010.0
20260506023006 66 285 0.0 0.0 0.00 0.00 0.00 64 1010.1
20260506022506 66 296 0.0 0.0 0.00 0.00 0.00 63 1010.0
20260506022005 66 269 0.0 0.0 0.00 0.00 0.00 63 1009.9
20260506021506 66 288 0.0 0.0 0.00 0.00 0.00 63 1010.0
20260506021005 66 278 0.0 0.0 0.00 0.00 0.00 62 1010.0
20260506020511 67 265 0.0 0.0 0.00 0.00 0.00 62 1010.0
20260506020005 67 289 0.0 0.0 0.00 0.00 0.00 62 1009.9
20260506015504 67 294 0.0 0.0 0.00 0.00 0.00 61 1009.9
20260506015004 68 279 0.0 0.0 0.00 0.00 0.00 61 1009.9
20260506014503 68 304 0.0 0.0 0.00 0.00 0.00 60 1009.9
20260506014003 69 288 0.0 0.0 0.00 0.00 0.00 58 1009.8
20260506013507 70 275 0.0 0.0 0.00 0.00 0.00 57 1009.8
20260506013003 70 279 0.0 0.0 0.00 0.00 0.00 57 1009.8
20260506012503 71 269 0.0 0.0 0.00 0.00 0.00 57 1009.9
20260506012004 71 288 0.0 0.0 0.00 0.00 0.00 55 1009.8
20260506011503 71 262 0.0 0.0 0.00 0.00 0.00 56 1009.8
20260506011002 72 261 0.0 0.0 0.00 0.00 0.00 54 1009.7
20260506010502 72 266 0.0 0.0 0.00 0.00 0.00 53 1009.8
20260506010005 72 268 0.0 0.0 0.00 0.00 0.00 54 1009.8
20260506005501 72 249 0.0 0.0 0.00 0.00 0.00 54 1009.9
20260506005001 72 259 0.0 0.0 0.00 0.00 0.00 54 1009.9
20260506004501 72 261 0.0 0.0 0.00 0.00 0.00 56 1009.9
20260506004001 71 267 0.0 0.0 0.00 0.00 0.00 56 1009.8
20260506003503 71 267 0.0 0.0 0.00 0.00 0.00 55 1009.9
20260506003001 71 288 0.0 0.0 0.00 0.00 0.00 55 1009.8
20260506002500 71 288 0.0 0.0 0.00 0.00 0.00 57 1009.9
20260506002100 71 267 0.0 0.0 0.00 0.00 0.00 58 1009.8
20260506001600 71 277 0.0 0.0 0.00 0.00 0.00 57 1009.8
20260506001101 71 267 0.0 0.0 0.00 0.00 0.00 57 1009.8
20260506000600 71 273 0.0 0.0 0.00 0.00 0.00 57 1009.8
20260505235559 71 298 0.0 0.0 0.00 0.00 0.00 56 1010.0
20260505235101 72 290 0.0 0.0 0.00 0.00 0.00 56 1010.1
20260505234605 72 266 0.0 0.0 0.00 0.00 0.00 56 1010.1
20260505234058 72 286 0.0 0.0 0.00 0.00 0.00 57 1010.1
20260505233602 72 286 0.0 0.0 0.00 0.00 0.00 56 1010.2
20260505233111 72 299 0.0 0.0 0.00 0.00 0.00 56 1010.2
20260505232558 72 293 0.0 0.0 0.00 0.00 0.00 56 1010.2
20260505232058 72 283 0.0 0.0 0.00 0.00 0.00 55 1010.2
20260505231605 72 319 0.0 0.0 0.00 0.00 0.00 55 1010.2
20260505231101 72 294 0.0 0.0 0.00 0.00 0.00 55 1010.2
20260505230556 72 275 0.0 0.0 0.00 0.00 0.00 56 1010.2
20260505230056 72 263 0.0 0.0 0.00 0.00 0.00 56 1010.3
20260505225556 71 284 0.0 0.0 0.00 0.00 0.00 58 1010.3
20260505225056 71 296 0.0 0.0 0.00 0.00 0.00 56 1010.4
20260505224556 71 294 0.0 0.0 0.00 0.00 0.00 56 1010.3
20260505224055 72 281 0.0 0.0 0.00 0.00 0.00 56 1010.4
20260505223555 71 259 0.0 0.0 0.00 0.00 0.00 56 1010.3
20260505223057 72 284 0.0 0.0 0.00 0.00 0.00 56 1010.4
20260505222555 72 284 0.0 0.0 0.00 0.00 0.00 56 1010.4
20260505222055 72 310 0.0 0.0 0.00 0.00 0.00 56 1010.4
20260505221555 72 273 0.0 0.0 0.00 0.00 0.00 56 1010.5
20260505221053 72 300 0.0 0.0 0.00 0.00 0.00 56 1010.5
20260505220557 72 298 0.0 0.0 0.00 0.00 0.00 55 1010.4
20260505220052 71 257 0.0 0.0 0.00 0.00 0.00 57 1010.5
20260505215551 71 284 0.0 0.0 0.00 0.00 0.00 56 1010.5
20260505215051 71 259 0.0 0.0 0.00 0.00 0.00 58 1010.6
20260505214555 71 260 0.0 0.0 0.00 0.00 0.00 57 1010.7
20260505214051 71 278 0.0 0.0 0.00 0.00 0.00 57 1010.8
20260505213550 71 292 0.0 0.0 0.00 0.00 0.00 56 1010.8
20260505213052 71 271 0.0 0.0 0.00 0.00 0.00 58 1010.8
20260505212550 71 292 0.0 0.0 0.00 0.00 0.00 56 1010.9
20260505212049 71 279 0.0 0.0 0.00 0.00 0.00 58 1010.9
20260505211556 71 298 0.0 0.0 0.00 0.00 0.00 58 1010.8
20260505211051 71 274 0.0 0.0 0.00 0.00 0.00 57 1010.9
20260505210547 71 293 0.0 0.0 0.00 0.00 0.00 58 1010.9
20260505210047 70 304 0.0 0.0 0.00 0.00 0.00 57 1011.0
20260505205546 70 295 0.0 0.0 0.00 0.00 0.00 58 1011.0
20260505205049 70 242 0.0 0.0 0.00 0.00 0.00 58 1011.0
20260505204547 70 270 0.0 0.0 0.00 0.00 0.00 60 1011.0
20260505204044 69 275 0.0 0.0 0.00 0.00 0.00 59 1011.1
20260505203548 69 294 0.0 0.0 0.00 0.00 0.00 58 1011.0
20260505203047 69 284 0.0 0.0 0.00 0.00 0.00 57 1011.0
20260505202546 69 282 0.0 0.0 0.00 0.00 0.00 58 1011.1
20260505202047 69 279 0.0 0.0 0.00 0.00 0.00 58 1011.1
20260505201545 69 290 0.0 0.0 0.00 0.00 0.00 58 1011.1
20260505201043 69 283 0.0 0.0 0.00 0.00 0.00 59 1011.2
20260505200543 69 296 0.0 0.0 0.00 0.00 0.00 58 1011.3
20260505200047 69 296 0.0 0.0 0.00 0.00 0.00 57 1011.3
20260505195541 69 315 0.0 0.0 0.00 0.00 0.00 59 1011.3
20260505195040 69 241 0.0 0.0 0.00 0.00 0.00 56 1011.3
20260505194540 69 284 0.0 0.0 0.00 0.00 0.00 59 1011.3
20260505194038 68 245 0.0 0.0 0.00 0.00 0.00 58 1011.4
20260505193538 68 254 0.0 0.0 0.00 0.00 0.00 59 1011.5
20260505193036 68 288 0.0 0.0 0.00 0.00 0.00 60 1011.5
20260505192535 67 265 0.0 0.0 0.00 0.00 0.00 60 1011.5
20260505192034 67 274 0.0 0.0 0.00 0.00 0.00 61 1011.7
20260505191533 67 318 0.0 0.0 0.00 0.00 0.00 60 1011.6
20260505191035 67 304 0.0 0.0 0.00 0.00 0.00 60 1011.6
20260505190532 67 306 0.0 0.0 0.00 0.00 0.00 61 1011.7
20260505190037 67 288 0.0 0.0 0.00 0.00 0.00 61 1011.7
20260505185532 66 281 0.0 0.0 0.00 0.00 0.00 61 1011.7
20260505185032 67 321 0.0 0.0 0.00 0.00 0.00 60 1011.7
20260505184530 66 299 0.0 0.0 0.00 0.00 0.00 62 1011.8
20260505184030 66 254 0.0 0.0 0.00 0.00 0.00 60 1011.9
20260505183530 66 306 0.0 0.0 0.00 0.00 0.00 63 1011.9
20260505183032 66 284 0.0 0.0 0.00 0.00 0.00 62 1011.9
20260505182529 66 303 0.0 0.0 0.00 0.00 0.00 61 1012.0
20260505182029 66 278 0.0 0.0 0.00 0.00 0.00 63 1011.9
20260505181529 66 304 0.0 0.0 0.00 0.00 0.00 62 1011.9
20260505181028 65 252 0.0 0.0 0.00 0.00 0.00 62 1011.9
20260505180525 65 247 0.0 0.0 0.00 0.00 0.00 63 1011.9
20260505180025 65 310 0.0 0.0 0.00 0.00 0.00 63 1012.0
20260505175525 65 296 0.0 0.0 0.00 0.00 0.00 61 1012.0
20260505175024 64 299 0.0 0.0 0.00 0.00 0.00 63 1012.0
20260505174524 64 279 0.0 0.0 0.00 0.00 0.00 64 1011.9
20260505174026 64 284 0.0 0.0 0.00 0.00 0.00 64 1011.9
20260505173523 64 280 0.0 0.0 0.00 0.00 0.00 64 1012.0
20260505173022 64 254 0.0 0.0 0.00 0.00 0.00 65 1012.2
20260505172521 63 277 0.0 0.0 0.00 0.00 0.00 65 1012.0
20260505172023 63 284 0.0 0.0 0.00 0.00 0.00 65 1012.0
20260505171524 63 263 0.0 0.0 0.00 0.00 0.00 65 1012.0
20260505171021 63 317 0.0 0.0 0.00 0.00 0.00 65 1012.0
20260505170521 62 276 0.0 0.0 0.00 0.00 0.00 66 1011.9
20260505170020 62 302 0.0 0.0 0.00 0.00 0.00 67 1011.9
20260505165521 62 284 0.0 0.0 0.00 0.00 0.00 66 1011.8
20260505165020 62 259 0.0 0.0 0.00 0.00 0.00 67 1012.0
20260505164519 62 267 0.0 0.0 0.00 0.00 0.00 67 1011.9
20260505164023 61 268 0.0 0.0 0.00 0.00 0.00 67 1011.8
20260505163517 61 276 0.0 0.0 0.00 0.00 0.00 67 1011.8
20260505163017 61 252 0.0 0.0 0.00 0.00 0.00 67 1011.8
20260505162517 61 221 0.0 0.0 0.00 0.00 0.00 67 1011.9
20260505162017 61 279 0.0 0.0 0.00 0.00 0.00 67 1011.8
20260505161517 60 267 0.0 0.0 0.00 0.00 0.00 67 1011.8
20260505161019 60 250 0.0 0.0 0.00 0.00 0.00 67 1011.9
20260505160519 60 253 0.0 0.0 0.00 0.00 0.00 67 1011.9
20260505153014 59 300 0.0 0.0 0.00 0.00 0.00 65 1011.7
20260505152513 59 247 0.0 0.0 0.00 0.00 0.00 65 1011.6
20260505152017 59 284 0.0 0.0 0.00 0.00 0.00 64 1011.5
20260505151511 59 214 0.0 0.0 0.00 0.00 0.00 64 1011.5
20260505151011 58 298 0.0 0.0 0.00 0.00 0.00 64 1011.5
20260505150511 58 267 0.0 0.0 0.00 0.00 0.00 63 1011.5
20260505140506 57 287 0.0 0.0 0.00 0.00 0.00 59 1010.9
20260505124607 57 300 0.0 0.0 0.00 0.00 0.00 60 1010.0
20260505124058 58 273 0.0 0.0 0.00 0.00 0.00 60 1010.0
20260505123557 58 194 0.0 0.0 0.00 0.00 0.00 61 1009.9
20260505123058 58 285 0.0 0.0 0.00 0.00 0.00 61 1009.9
20260505122556 58 240 0.0 0.0 0.00 0.00 0.00 61 1009.8
20260505122055 58 269 0.0 0.0 0.00 0.00 0.00 62 1009.8
20260505121555 58 285 0.0 0.0 0.00 0.00 0.00 62 1009.8
20260505121058 58 294 0.0 0.0 0.00 0.00 0.00 62 1009.6
20260505120554 58 292 0.0 0.0 0.00 0.00 0.00 62 1009.6
20260505120108 58 266 0.0 0.0 0.00 0.00 0.00 62 1009.6
20260505115553 58 278 0.0 0.0 0.00 0.00 0.00 62 1009.6
20260505115052 58 280 0.0 0.0 0.00 0.00 0.00 62 1009.6
20260505114552 59 295 0.0 0.0 0.00 0.00 0.00 63 1009.5
20260505114052 59 244 0.0 0.0 0.00 0.00 0.00 63 1009.6
20260505113550 59 288 0.0 0.0 0.00 0.00 0.00 63 1009.7
20260505113054 59 257 0.0 0.0 0.00 0.00 0.00 63 1009.6
20260505112552 59 251 0.0 0.0 0.00 0.00 0.00 63 1009.6
20260505112049 59 246 0.0 0.0 0.00 0.00 0.00 63 1009.5
20260505111549 59 298 0.0 0.0 0.00 0.00 0.00 63 1009.4
20260505111049 59 290 0.0 0.0 0.00 0.00 0.00 63 1009.5
20260505110549 59 269 0.0 0.0 0.00 0.00 0.00 63 1009.4